Back to catalog

CZ-7A R/B

AliveHEO
NORAD 55132·ROCKET BODY·🇨🇳 China

Launched Jan 8, 2023 from Wenchang Space Launch Site

Loading…

Next Passes (next 24 hours)

TLE

FreshSource: Space-Track

Epoch: Sep 14, 2026, 00:43 UTC

1 55132U 23002B   26257.02997300  .00066457  54866-6  95775-3 0  9994
2 55132  16.4550 220.7600 5738384 174.7166 195.9720  4.54842089 47857

Track CZ-7A R/B in real time with AllMySat

Download on the App Store